{"data":{"norad_id":67985,"epoch":"2026-05-25T00:36:29.604096Z","epoch_age_seconds":79623,"freshness":"FRESH","line1":"1 67985U 26038AA  26145.02534264  .00020672  00000+0  64077-3 0  9991","line2":"2 67985  97.2832 155.9088 0002050  90.0884 270.0594 15.33450783 14999","mean_motion":15.33450783,"eccentricity":0.000205,"inclination_deg":97.2832,"raan_deg":155.9088,"arg_perigee_deg":90.0884,"mean_anomaly_deg":270.0594,"bstar":0.00064077,"rev_number":1499,"period_min":93.905850514669,"perigee_km":464.12301748437,"apogee_km":466.92891930141,"semimajor_km":6843.6629683929,"source":"CELESTRAK","updated_at":"2026-05-25T13:38:21.778312Z"}}